Back to catalog

STARLINK-34193

AliveCommunicationsVLEO
NORAD 64011·PAYLOAD·🇺🇸 United States

Launched May 14, 2025 from Cape Canaveral Space Force Station

Loading…

Next Passes (next 24 hours)

TLE

FreshSource: CelesTrak SupGP

Epoch: Sep 15, 2026, 03:00 UTC

1 64011C 25101T   26258.12548611  .00024680  00000+0  89386-3 0  2586
2 64011  43.0014   8.3769 0001475 263.7428 110.7659 15.27568290    13

Track STARLINK-34193 in real time with AllMySat

Download on the App Store